STARLINK-37073, 68151

Orbit data source: Space-Track

STARLINK-37073, 68151 is a payload satellite owned by SpaceX/Seattle (US) in SSO that was launched on Fri, 13 Mar 2026 UTC via an FALCON 9 launch vehicle from the Air Force Western Test Range (AFWTR). Payload-class satellites include a variety of spacecraft equipped with specific instruments for various scientific and technological missions. These include communications satellites like Starlink; space stations such as the ISS; scientific satellites like the Hubble; Earth observation satellites from companies like Planet Labs, Umbra, and HawkEye 360; GPS; miniature CubeSats for education and research; and military/defense satellites.

Loading next visibility...
Identifier
68151, 2026-049K
Orbit
SSO
Country
Flag of USUS
Related business
Manufacturer
SpaceX/Seattle
Mission
Operational spacecraft
Bus & Motor
STARLINK V2MO, Unknown motor
Mass
575 kg wet, ~530 kg dry
Launch date (UTC)
2026-03-13 (3 months ago)
Launch vehicle
FALCON 9
Launch site
Air Force Western Test Range (AFWTR)
Object type
Payload
Rocket body
Debris
Shape & HBR
Unknown shape, 17.7 m
Radar Cross Section
Large (>1 m²)

Expand to show TLE details & history
Last TLE update: 22 hours ago

TLE from 22 hours ago
0 STARLINK-37073
1 68151U 26049K   26171.03943887  .00016329  00000-0  50705-3 0  9992
2 68151  97.2831 192.3437 0002004  90.3084 269.8388 15.33442231 15336
Epoch: 2026-06-20T00:56Z
TLE epoch observation values (Epoch: 2026-06-20T00:56:47.518Z)
Latitude
-0.00005°
Longitude
-90.11407°
Altitude
468.668 km
Speed
7.632 km/s
True Right ascension
12h 49m 22s
True Declination
0° 00' 00"
Sunlit
Object was in daylight at epoch
Visualization orbit readout
Latitude
Unknown
Longitude
Unknown
Altitude
Unknown
Speed
Unknown
Apparent Right ascension
Unknown
Apparent Declination
Unknown
Sunlit
N/A
Visualization observer readout
Local Sidereal Time
10:17:59
Azimuth
Unknown
Elevation
Unknown
Doppler factor
Unknown
Orbital elements
Apogee altitude
463.865 km
Perigee altitude
461.123 km
Semi-major axis
6,840.631 km
Eccentricity
0.0002
Inclination
97.2831°
RAAN
192.3437°
Arg. of periapsis
90.3084°
True anomaly
269.81584°
Mean anomaly
269.8388°
Eccentric anomaly
269.82732°
Mean motion
3.83618 °/min
Orbital period
93.84 mins
BSTAR
0.00050705
Loading maneuver chart data...
Computing Atmospheric mass density...
Loading historical data...
Loading historical data...
Loading historical data...
Loading historical data...
Loading historical data...
Loading historical data...
Loading historical data...

Documentation

Showing up to 5 results
|